Tracking 35275 objects as of 9-Sep-2026
HD Live streaming from Space Station
objects crossing your sky now

COSMOS 729

Track COSMOS 729 now!
10-day predictions
COSMOS 729 is classified as:


NORAD ID: 7768
Int'l Code: 1975-034A
Launch date: April 22, 1975
Source: Commonwealth of Independent States (former USSR) (CIS)
Launch site: PLESETSK MISSILE AND SPACE COMPLEX (PKMTR)
Your satellite tracking list
Your tracking list is empty




NASA's NSSDC Master Catalog

Two Line Element Set (TLE):
1 07768U 75034A   26251.97278951  .00000056  00000-0  44329-4 0  9998
2 07768  82.9599  68.5792 0021724 291.4743 233.1218 13.73648721574531
Source of the keplerian elements: AFSPC